Waarnemingen

Advertentie
Mijn weer
Oviedo, Spanje (8015): temperatuur & dauwpunt: 17.01.2020 04:00:00 - 23.01.2020 04:00:00 (CET)Oviedo, Spanje (8015): windsnelheid: 17.01.2020 04:00:00 - 23.01.2020 04:00:00 (CET)Oviedo, Spanje (8015): windrichting: 17.01.2020 04:00:00 - 23.01.2020 04:00:00 (CET)Oviedo, Spanje (8015): luchtdruk: 17.01.2020 04:00:00 - 23.01.2020 04:00:00 (CET)Oviedo, Spanje (8015): zicht: 17.01.2020 04:00:00 - 23.01.2020 04:00:00 (CET)Oviedo, Spanje (8015): neerslag: 17.01.2020 04:00:00 - 23.01.2020 04:00:00 (CET)
Datum & Tijd tt [°C] td [°C] ff [km/u] ff [kn] dd ppp [hPa] vv [km] rr [mm]
23.01.2020 04:00:00 4,9 4,9 4 2 ZZW 1020,4 0,1 -
23.01.2020 03:00:00 5,0 5,0 4 2 ZW 1020,9 0,1 0,0
23.01.2020 02:00:00 5,3 5,3 2 1 NW 1021,0 0,1 0,0
23.01.2020 01:00:00 5,5 5,5 4 2 Z 1021,2 0,1 -
23.01.2020 00:00:00 5,9 5,9 4 2 ZZO 1021,0 0,1 0,0
22.01.2020 23:00:00 6,4 6,4 2 1 ZO 1020,8 0,6 0,0
22.01.2020 22:00:00 6,7 6,7 5 3 O 1021,0 1,2 -
22.01.2020 21:00:00 6,8 6,8 4 2 O 1021,2 7 0,2
22.01.2020 20:00:00 6,9 6,9 4 2 ZZO 1021,1 3,1 0,4
22.01.2020 19:00:00 7,0 7,0 4 2 WNW 1021,3 0,2 -
22.01.2020 18:00:00 7,2 7,2 2 1 WZW 1021,6 2,6 2,0
22.01.2020 17:00:00 7,4 7,3 4 2 W 1021,7 4,0 0,2
22.01.2020 16:00:00 8,2 7,0 2 1 O 1022,2 3,0 -
22.01.2020 15:00:00 7,7 6,9 5 3 ONO 1023,3 9 0,4
22.01.2020 14:00:00 7,6 7,6 2 1 WZW 1024,1 1,0 1,0
22.01.2020 13:00:00 7,2 7,1 4 2 NW 1024,9 2,0 -
22.01.2020 12:00:00 7,6 7,2 2 1 ZZW 1025,4 4,1 0,4
22.01.2020 11:00:00 7,5 6,9 8 4 ONO 1025,2 8 0,6
22.01.2020 10:00:00 7,7 6,9 4 2 O 1025,4 10 -
22.01.2020 09:00:00 7,3 7,0 5 3 O 1025,3 9 0,2
22.01.2020 08:00:00 6,9 6,8 5 3 ONO 1025,4 4,8 0,2
22.01.2020 07:00:00 7,0 6,9 5 3 OZO 1025,6 5 -
22.01.2020 06:00:00 6,2 6,1 2 1 ZW 1026,1 9 0,0
22.01.2020 05:00:00 5,8 5,5 5 3 ZZW 1026,3 8 0,2
22.01.2020 04:00:00 5,9 5,5 4 2 OZO 1027,3 - -
22.01.2020 03:00:00 5,7 5,3 2 1 OZO 1027,9 9 0,0
22.01.2020 02:00:00 5,5 4,9 2 1 O 1028,7 6 0,2
22.01.2020 01:00:00 5,7 4,5 4 2 ZO 1029,2 11 -
22.01.2020 00:00:00 5,8 3,8 4 2 O 1029,6 17 0,0
21.01.2020 23:00:00 5,9 3,6 9 5 O 1029,7 20 0,0
21.01.2020 22:00:00 5,8 3,5 9 5 OZO 1029,6 20 -
21.01.2020 21:00:00 5,5 3,2 11 6 O 1029,5 20 0,0
21.01.2020 20:00:00 5,7 3,2 16 9 O 1029,5 20 0,0
21.01.2020 19:00:00 5,7 3,2 13 7 O 1029,5 20 -
21.01.2020 18:00:00 6,1 3,8 18 10 O 1029,5 15 0,0
21.01.2020 17:00:00 6,4 4,7 8 4 O 1029,6 19 0,0
21.01.2020 16:00:00 6,4 4,6 8 4 O 1029,4 12 -
21.01.2020 15:00:00 6,3 4,8 8 4 NO 1030,1 10 0,0
21.01.2020 14:00:00 6,7 4,7 5 3 O 1030,7 20 0,0
21.01.2020 13:00:00 6,7 4,2 5 3 O 1031,4 15 -
21.01.2020 12:00:00 6,2 3,7 4 2 Z 1032,3 19 0,0
21.01.2020 11:00:00 5,4 2,4 2 1 NW 1032,6 19 0,0
21.01.2020 10:00:00 5,3 2,1 5 3 O 1032,9 12 -
21.01.2020 09:00:00 5,2 2,7 5 3 OZO 1032,9 19 0,0
21.01.2020 08:00:00 4,7 2,1 5 3 O 1033,2 19 0,0
21.01.2020 07:00:00 4,6 2,1 2 1 ZO 1033,5 15 -
21.01.2020 06:00:00 4,3 2,3 4 2 O 1033,6 20 0,0
21.01.2020 05:00:00 4,3 2,3 4 2 ZO 1033,7 20 0,0
21.01.2020 04:00:00 4,3 2,0 4 2 NO 1034,1 17 -
21.01.2020 03:00:00 4,1 1,8 4 2 N 1034,8 20 0,0
21.01.2020 02:00:00 3,9 1,8 5 3 ZO 1034,9 20 0,0
21.01.2020 01:00:00 4,1 1,6 11 6 ZO 1035,7 19 -
21.01.2020 00:00:00 4,1 1,6 4 2 OZO 1035,8 13 0,0
20.01.2020 23:00:00 4,5 1,5 5 3 OZO 1036,1 14 0,0
20.01.2020 22:00:00 4,5 1,2 8 4 OZO 1036,2 19 -
20.01.2020 21:00:00 4,5 1,5 5 3 OZO 1036,2 19 0,0
20.01.2020 20:00:00 4,3 1,7 5 3 OZO 1036,3 19 0,0
20.01.2020 19:00:00 4,2 2,1 4 2 OZO 1035,8 15 -
20.01.2020 18:00:00 4,3 2,2 4 2 ZZO 1035,5 19 0,0
20.01.2020 17:00:00 4,7 2,2 9 5 O 1035,5 19 0,0
20.01.2020 16:00:00 4,8 2,8 16 9 O 1035,8 15 -
20.01.2020 15:00:00 5,4 2,9 5 3 OZO 1035,4 18 0,4
20.01.2020 14:00:00 5,4 2,4 18 10 O 1036,0 20 0,2
20.01.2020 13:00:00 5,9 1,2 16 9 NO 1037,0 10 -
20.01.2020 12:00:00 6,6 1,7 15 8 O 1037,7 20 0,0
20.01.2020 11:00:00 5,0 1,7 13 7 OZO 1038,1 19 0,0
20.01.2020 10:00:00 4,0 1,0 9 5 OZO 1037,5 20 -
20.01.2020 09:00:00 3,3 1,2 8 4 NO 1037,3 19 0,0
20.01.2020 08:00:00 3,2 1,6 8 4 ZZO 1037,0 20 0,0
20.01.2020 07:00:00 3,6 1,6 5 3 ZO 1036,9 15 -
20.01.2020 06:00:00 3,4 1,8 8 4 O 1037,1 19 0,0
20.01.2020 05:00:00 3,5 1,9 5 3 ZZO 1037,3 19 0,0
20.01.2020 04:00:00 3,4 1,8 5 3 ZO 1037,8 18 -
20.01.2020 03:00:00 4,3 1,5 11 6 O 1038,5 19 0,0
20.01.2020 02:00:00 4,5 1,0 11 6 O 1038,9 20 0,0
20.01.2020 01:00:00 5,1 0,5 11 6 OZO 1039,1 19 -
20.01.2020 00:00:00 5,3 1,4 15 8 ONO 1039,4 19 0,0
19.01.2020 23:00:00 5,3 1,8 13 7 O 1039,5 20 0,0
19.01.2020 22:00:00 6,1 1,2 11 6 ONO 1039,4 19 -
19.01.2020 21:00:00 6,1 1,2 16 9 ONO 1039,4 19 0,0
19.01.2020 20:00:00 5,8 0,9 11 6 ONO 1038,9 18 0,0
19.01.2020 19:00:00 6,2 1,1 11 6 ONO 1038,4 19 -
19.01.2020 18:00:00 6,7 0,6 11 6 O 1038,3 20 0,0
19.01.2020 17:00:00 7,6 1,0 18 10 ONO 1037,7 20 0,0
19.01.2020 16:00:00 8,0 2,4 11 6 ONO 1037,4 19 -
19.01.2020 15:00:00 8,3 2,1 16 9 ONO 1037,5 19 0,0
19.01.2020 14:00:00 8,4 2,2 18 10 NO 1037,5 19 0,0
19.01.2020 13:00:00 8,8 3,4 18 10 NO 1038,0 18 -
19.01.2020 12:00:00 8,3 3,9 18 10 ONO 1038,1 18 0,0
19.01.2020 11:00:00 8,0 4,2 11 6 NO 1037,2 17 0,0
19.01.2020 10:00:00 7,1 3,5 11 6 NO 1036,6 17 -
19.01.2020 09:00:00 7,2 4,0 13 7 NO 1035,1 16 0,0
19.01.2020 08:00:00 7,3 3,9 16 9 NO 1033,5 17 0,0
19.01.2020 07:00:00 7,4 4,4 18 10 NO 1032,3 17 -
19.01.2020 06:00:00 7,0 5,5 16 9 NO 1031,0 15 0,4
19.01.2020 05:00:00 7,3 5,3 18 10 NO 1030,0 13 0,2
19.01.2020 04:00:00 7,5 6,6 29 16 NNO 1028,7 10 -
19.01.2020 03:00:00 7,7 7,6 21 11 NNO 1027,1 6 3,0
19.01.2020 02:00:00 7,2 6,0 11 6 WNW 1025,5 6 0,6
19.01.2020 01:00:00 7,5 5,3 9 5 NW 1024,4 20 -
19.01.2020 00:00:00 7,5 5,6 9 5 NW 1023,4 15 0,0
18.01.2020 23:00:00 7,6 5,2 9 5 WNW 1022,4 20 0,0
18.01.2020 22:00:00 7,6 5,4 5 3 WNW 1022,0 20 -
18.01.2020 21:00:00 7,1 5,7 5 3 WZW 1021,5 20 0,0
18.01.2020 20:00:00 7,0 5,8 9 5 W 1020,8 19 0,2
18.01.2020 19:00:00 6,7 6,1 13 7 W 1021,1 12 -
18.01.2020 18:00:00 9,0 6,8 5 3 ZW 1019,7 20 0,0
18.01.2020 17:00:00 8,9 7,2 13 7 NW 1019,4 17 0,0
18.01.2020 16:00:00 8,0 7,6 2 1 NW 1019,2 19 -
18.01.2020 15:00:00 8,3 7,7 26 14 NW 1018,2 2,7 3,0
18.01.2020 14:00:00 12,0 6,7 8 4 NNW 1015,8 8 0,2
18.01.2020 13:00:00 13,7 5,8 4 2 ZZO 1016,8 20 -
18.01.2020 12:00:00 9,4 4,8 4 2 WNW 1018,8 17 0,0
18.01.2020 11:00:00 10,5 3,7 5 3 NO 1018,6 20 0,0
18.01.2020 10:00:00 9,1 2,9 9 5 ZO 1019,6 20 -
18.01.2020 09:00:00 6,0 2,6 4 2 ZZO 1021,5 20 0,0
18.01.2020 08:00:00 5,9 3,2 4 2 ONO 1023,1 16 0,0
18.01.2020 07:00:00 6,0 2,6 2 1 NO 1023,8 15 -
18.01.2020 06:00:00 5,6 2,8 2 1 ZZW 1025,1 19 0,0
18.01.2020 05:00:00 5,5 2,8 2 1 O 1026,2 19 0,0
18.01.2020 04:00:00 5,8 3,0 5 3 Z 1027,5 19 -
18.01.2020 03:00:00 5,8 3,0 2 1 ZO 1028,6 18 0,0
18.01.2020 02:00:00 5,9 3,4 8 4 ZZO 1029,1 19 0,0
18.01.2020 01:00:00 6,7 3,8 4 2 O 1030,0 19 -
18.01.2020 00:00:00 7,0 3,8 2 1 O 1030,7 19 0,0
17.01.2020 23:00:00 7,3 4,1 9 5 O 1031,0 19 0,0
17.01.2020 22:00:00 7,3 4,3 8 4 OZO 1031,5 18 -
17.01.2020 21:00:00 7,4 4,4 8 4 O 1031,9 19 0,0
17.01.2020 20:00:00 7,9 4,5 9 5 O 1032,0 20 0,0
17.01.2020 19:00:00 8,7 4,3 9 5 O 1031,9 20 -
17.01.2020 18:00:00 9,3 1,4 11 6 NNW 1031,5 20 0,0
17.01.2020 17:00:00 10,0 1,1 13 7 NW 1031,1 20 0,0
17.01.2020 16:00:00 10,5 0,5 13 7 WNW 1030,6 20 -
17.01.2020 15:00:00 11,0 0,7 15 8 NW 1029,9 20 0,0
17.01.2020 14:00:00 10,6 0,0 18 10 W 1030,3 20 0,0
17.01.2020 13:00:00 9,9 1,8 15 8 W 1030,4 20 -
17.01.2020 12:00:00 9,4 2,0 18 10 WNW 1030,5 20 0,0
17.01.2020 11:00:00 7,9 3,5 15 8 W 1029,9 20 0,0
17.01.2020 10:00:00 7,1 3,5 18 10 W 1029,4 20 -
17.01.2020 09:00:00 6,9 4,0 15 8 WNW 1027,9 20 0,0
17.01.2020 08:00:00 7,1 4,6 13 7 WNW 1026,7 20 0,2
17.01.2020 07:00:00 7,0 5,3 8 4 WNW 1025,7 20 -
17.01.2020 06:00:00 7,5 5,1 11 6 WNW 1024,9 18 0,0
17.01.2020 05:00:00 7,5 5,3 9 5 WNW 1024,0 20 0,8
17.01.2020 04:00:00 8,7 5,3 15 8 WNW 1023,4 20 -

tt = temperatuur
td = dauwpunt
ff = windsnelheid
dd = windrichting
ppp = luchtdruk
vv = zicht
rr = neerslag

Weerstations in de omgeving